This demonstration page uses our WeatherBlox Daily Observations layout. Learn more.

39.92423, -83.80882

Hourly Observations for July 11, 2016

Temp ( °F °C ) Dew Point ( °F °C ) Humidity (%) Winds ( mph kmh ) Pressure ( in mb ) Visibility ( mi km ) Precip ( " mm )
12:56 am 00:56 Clear 64 17.7 61 16.1 90 90 SE 6 9 30.05 1018 10 16.0934 0 0
1:56 am 01:56 Clear 66 18.8 62 16.6 87 87 SSE 6 9 30.04 1017 10 16.0934 0 0
2:56 am 02:56 Clear 63 17.2 60 15.5 90 90 Calm 30.05 1018 10 16.0934 0 0
3:56 am 03:56 Clear 62 16.6 60 15.5 93 93 Calm 30.06 1018 10 16.0934 0 0
4:56 am 04:56 Clear 62 16.6 60 15.5 93 93 Calm 30.06 1018 10 16.0934 0 0
5:56 am 05:56 Clear 61 16.1 61 16.1 100 100 ESE 3 6 30.06 1018 10 16.0934 0 0
6:56 am 06:56 Sunny 59 15 59 15 100 100 E 3 6 30.08 1019 10 16.0934 0 0
7:56 am 07:56 Sunny 67 19.4 66 18.8 96 96 Calm 30.08 1019 10 16.0934 0 0
8:56 am 08:56 Sunny 74 23.3 66 18.8 76 76 VRB 3 6 30.09 1019 10 16.0934 0 0
9:56 am 09:56 Sunny 79 26.1 66 18.8 64 64 S 5 7 30.09 1019 10 16.0934 0 0
10:56 am 10:56 Sunny 82 27.7 65 18.3 57 57 S 6 9 30.09 1019 10 16.0934 0 0
11:56 am 11:56 Mostly Sunny 84 28.8 65 18.3 53 53 S 7 11 30.09 1019 10 16.0934 0 0
12:56 pm 12:56 Mostly Sunny 85 29.4 65 18.3 51 51 VRB 6 9 30.09 1019 10 16.0934 0 0
1:56 pm 13:56 Partly Cloudy 86 30 64 17.7 48 48 VRB 7 11 30.09 1019 10 16.0934 0 0
2:56 pm 14:56 Mostly Sunny 87 30.5 63 17.2 45 45 SW 7 11 30.07 1018 10 16.0934 0 0
3:56 pm 15:56 Mostly Sunny 88 31.1 64 17.7 45 45 VRB 5 7 30.05 1018 10 16.0934 0 0
4:56 pm 16:56 Sunny 89 31.6 64 17.7 43 43 WSW 8 13 30.05 1018 10 16.0934 0 0
5:56 pm 17:56 Mostly Sunny 88 31.1 64 17.7 45 45 Calm 30.03 1017 10 16.0934 0 0
6:56 pm 18:56 Sunny 87 30.5 65 18.3 48 48 SSE 6 9 30.02 1017 10 16.0934 0 0
7:56 pm 19:56 Sunny 84 28.8 66 18.8 55 55 SSE 6 9 30.02 1017 10 16.0934 0 0
8:56 pm 20:56 Sunny 78 25.5 67 19.4 69 69 SE 5 7 30.02 1017 10 16.0934 0 0
9:56 pm 21:56 Clear 77 25 66 18.8 69 69 S 6 9 30.02 1017 10 16.0934 0 0
10:56 pm 22:56 Clear 76 24.4 65 18.3 69 69 SSE 7 11 30.03 1017 10 16.0934 0 0
11:56 pm 23:56 Clear 75 23.8 65 18.3 71 71 S 6 9 30.02 1017 10 16.0934 0 0

Powered by AerisWeather